Regional Weather Roundup
Issued by NWS

Home | Current Version | Previous Version | Graphics & Text | Print | Product List | Glossary On
Versions: 1 2 3 4 5 6 7 8 9 10 11 12 13 14 15 16 17 18 19 20 21 22 23 24 25 26 27 28 29 30 31 32 33 34 35 36 37 38 39 40 41 42 43 44 45 46 47 48 49 50
000
ASUS43 KDMX 230903
RWRIA

WEATHER ROUNDUP FOR IOWA
NATIONAL WEATHER SERVICE DES MOINES IA
400 AM CDT TUE AUG 23 2016

NOTE: "FAIR" INDICATES FEW OR NO CLOUDS BELOW 12,000 FEET WITH NO
SIGNIFICANT WEATHER AND/OR OBSTRUCTIONS TO VISIBILITY.

* - THESE STATIONS ARE NOT NWS STATIONS...THUS NOT UNDER NWS
QUALITY CONTROL.  THEY ALSO DO NOT REPORT WEATHER SUCH
AS PRECIPITATION OR FOG.

IAZ001>003-012>014-020>022-031>034-043>046-231000-
   NORTHWEST IOWA

CITY           SKY/WX    TMP DP  RH WIND       PRES   REMARKS
CARROLL *      PTCLDY    61  59  94 S5        29.99S
CHEROKEE *     MOCLDY    65  62  91 S8        29.94F
DENISON *      CLEAR     66  61  82 S8G16     29.95F
LE MARS *      CLOUDY    68  63  83 S13G18    29.92F
ORANGE CITY *  PTCLDY    66  63  88 S9        29.92S
SHELDON *      PTCLDY    64  63  94 S12       29.91F
SIOUX CITY     PTCLDY    66  61  84 SE8       29.91F
SPENCER        CLOUDY    63  59  87 S12       29.95F
STORM LAKE *   PTCLDY    63  61  94 S9        29.97S
$$

IAZ055>058-069>071-079>083-090>094-231000-
   SOUTHWEST IOWA

CITY           SKY/WX    TMP DP  RH WIND       PRES   REMARKS
ATLANTIC *     CLOUDY    66  61  82 S10       29.99F
AUDUBON *      PTCLDY    66  61  82 S7        30.00F
CLARINDA *       N/A     66  63  88 MISG      30.03S
COUNCIL BLFS *   N/A     64  61  88 SE9       29.97S
CRESTON *      CLEAR     64  61  88 S8        30.04F
HARLAN  *      CLEAR     66  61  82 S7        30.01F
LAMONI         CLEAR     62  60  93 S7        30.05F
RED OAK *      CLOUDY    64  61  88 S7        29.99F
SHENANDOAH *   CLOUDY    66 N/A N/A SE8       29.99F
$$

IAZ047>049-059>061-072>074-084-231000-
   CENTRAL IOWA

CITY           SKY/WX    TMP DP  RH WIND       PRES   REMARKS
AMES           CLEAR     60  60 100 SE7       30.02F
ANKENY *         N/A    N/A N/A N/A MISG        N/A
BOONE *        CLEAR     63  61  94 S8        30.01F
CHARITON *       N/A     61  59  94 MISG      30.05F
DES MOINES     PTCLDY    66  60  81 S9        30.03S
GRINNELL*      CLEAR     61  58  89 SE6       30.07F
KNOXVILLE *    CLEAR     63  59  88 SE5       30.04F
MARSHALLTOWN   CLEAR     63  60  90 SE9       30.04F
NEWTON *       CLEAR     61  61 100 S7        30.05F
PELLA *        CLEAR     61  59  92 SE6       30.07S
PERRY *          N/A     61  61  99 SE6       30.01F
$$

IAZ004>006-015-016-023>025-035-036-231000-
   NORTH CENTRAL IOWA

CITY           SKY/WX    TMP DP  RH WIND       PRES   REMARKS
ALGONA *       PTCLDY    64  61  88 S12       29.99S
ESTHERVILLE    PTCLDY    62  61  96 S10       29.96F
FORT DODGE *   CLEAR     64  57  77 S8        30.00F
MASON CITY     CLEAR     60  58  92 S9        30.03F
FOREST CITY *    N/A     61  59  94 S7        30.01S
WEBSTER CITY * CLEAR     63  61  94 S8        29.99F
IOWA FALLS *     N/A     61  59  92 SE6       30.04F
$$

IAZ007>011-017>019-026>030-037>042-050>054-066-231000-
   NORTHEAST IOWA

CITY           SKY/WX    TMP DP  RH WIND       PRES   REMARKS
CEDAR RAPIDS   CLEAR     61  60  97 S7        30.08F
CHARLES CITY * CLEAR     61  61 100 S8        30.05F
CLINTON *      CLEAR     62  58  86 SE8       30.13F
DECORAH *      CLEAR     64  59  82 S9G15     30.06S
DUBUQUE        CLEAR     61  58  90 S7        30.12S
MONTICELLO *   CLEAR     61  59  94 CALM      30.10S
OELWEIN *      CLEAR     61  59  94 S9        30.08F
WATERLOO       CLEAR     64  58  80 S10       30.05F
$$

IAZ064-065-067-068-078-231000-
   EAST CENTRAL IOWA

CITY           SKY/WX    TMP DP  RH WIND       PRES   REMARKS
DAVENPORT      CLEAR     63  57  81 S7        30.13S
IOWA CITY      CLEAR     62  58  86 SE3       30.11F
MT. PLEASANT * CLEAR     62  62  99 SE5       30.11S
MUSCATINE *    CLEAR     59  57  94 CALM      30.11S
QUAD CITIES    CLEAR     62  57  83 E5        30.12F
$$

IAZ062-063-075>077-085>089-095>099-231000-
   SOUTHEAST IOWA

CITY           SKY/WX    TMP DP  RH WIND       PRES   REMARKS
BURLINGTON     CLEAR     62  60  93 S6        30.12S
FAIRFIELD *    CLEAR     63  59  88 S7        30.09F
FORT MADISON * CLEAR     63  61  94 S6        30.12F
KEOKUK *       CLEAR     63  59  88 SE5       30.11S
OSKALOOSA *      N/A     58  57  96 SE6       30.08S
CENTERVILLE *    N/A     59  57  94 CALM      30.09F
OTTUMWA        PTCLDY    62  58  86 S8        30.07F
WASHINGTON *   CLEAR     59  57  94 S7        30.11S
$$

ABBREVIATIONS USED IN REMARKS
   TC - TEMPERATURES IN CELSIUS
  WCI - WIND CHILL INDEX
   HX - HEAT INDEX
  VSB - VISIBILITY
$$





USA.gov is the U.S. government's official web portal to all federal, state and local government web resources and services.